Total_Precipitation_Accumulation
0.06 0.06 0.06 0.05 0.04 0.05 0.06 0.06 0.07 0.08 0.10 0.13 0.17 0.18 0.23 0.24 0.21 0.20 0.17 0.13 0.11 0.15 0.25 0.35 0.49 0.68 0.87 0.96 0.98 0.90 0.84 0.76 0.66 0.57 0.56 0.59 0.70 0.80 0.87 0.81 0.83 0.84 0.76
0.03 0.03 0.03 0.03 0.02 0.02 0.03 0.03 0.04 0.05 0.06 0.08 0.09 0.12 0.16 0.16 0.15 0.18 0.19 0.19 0.16 0.15 0.23 0.28 0.34 0.48 0.74 0.95 1.03 0.99 0.93 0.90 0.85 0.79 0.68 0.65 0.68 0.76 0.85 0.91 0.75 0.67 0.59
0.01 0.01 0.01 0.01 0.01 0.02 0.03 0.03 0.03 0.03 0.04 0.06 0.08 0.10 0.11 0.12 0.13 0.16 0.20 0.22 0.22 0.20 0.22 0.31 0.35 0.40 0.57 0.81 1.02 1.19 1.05 1.00 1.03 1.01 0.86 0.74 0.69 0.74 0.77 0.89 0.90 0.78 0.63
0.01 0.02 0.02 0.02 0.01 0.02 0.05 0.06 0.06 0.06 0.06 0.07 0.10 0.13 0.13 0.14 0.13 0.16 0.22 0.22 0.24 0.23 0.22 0.27 0.37 0.42 0.52 0.65 0.85 1.17 1.27 1.21 1.18 1.16 1.07 0.94 0.78 0.78 0.80 0.84 0.92 0.92 0.81
0.02 0.02 0.03 0.04 0.05 0.06 0.09 0.11 0.10 0.12 0.11 0.10 0.12 0.16 0.18 0.21 0.22 0.22 0.27 0.28 0.27 0.25 0.25 0.26 0.31 0.35 0.44 0.57 0.75 0.99 1.27 1.39 1.36 1.33 1.26 1.17 1.01 0.84 0.83 0.86 0.91 0.99 0.97
0.01 0.01 0.01 0.03 0.06 0.10 0.13 0.15 0.13 0.13 0.15 0.17 0.22 0.24 0.28 0.29 0.27 0.22 0.26 0.32 0.32 0.29 0.32 0.31 0.30 0.29 0.30 0.39 0.57 0.80 1.07 1.32 1.43 1.44 1.45 1.41 1.27 1.09 0.89 0.84 0.85 0.95 1.06
0.00 0.00 0.01 0.01 0.01 0.03 0.06 0.08 0.11 0.11 0.11 0.12 0.17 0.19 0.20 0.23 0.22 0.19 0.22 0.30 0.38 0.42 0.43 0.44 0.42 0.37 0.34 0.34 0.34 0.47 0.70 1.03 1.32 1.44 1.51 1.52 1.45 1.32 1.12 0.93 0.85 0.88 0.97
0.00 0.00 0.00 0.00 0.00 0.01 0.01 0.01 0.03 0.06 0.06 0.06 0.13 0.17 0.15 0.14 0.13 0.13 0.16 0.23 0.32 0.41 0.46 0.48 0.50 0.51 0.45 0.40 0.29 0.28 0.37 0.62 0.98 1.34 1.51 1.58 1.64 1.58 1.38 1.15 0.98 0.92 0.93
0.00 0.00 0.00 0.00 0.00 0.00 0.01 0.01 0.02 0.04 0.05 0.04 0.07 0.19 0.27 0.20 0.13 0.07 0.09 0.13 0.18 0.22 0.29 0.36 0.43 0.49 0.51 0.49 0.42 0.32 0.27 0.38 0.62 0.96 1.35 1.60 1.77 1.90 1.77 1.44 1.20 1.07 1.01
0.00 0.00 0.00 0.00 0.01 0.01 0.01 0.01 0.02 0.03 0.06 0.07 0.06 0.10 0.18 0.21 0.26 0.14 0.03 0.04 0.05 0.07 0.11 0.17 0.23 0.31 0.40 0.44 0.47 0.47 0.40 0.34 0.50 0.66 0.95 1.34 1.72 2.04 2.21 1.95 1.53 1.23 1.13
0.00 0.00 0.00 0.01 0.01 0.01 0.02 0.02 0.03 0.04 0.06 0.09 0.12 0.13 0.13 0.12 0.16 0.24 0.11 0.02 0.02 0.03 0.04 0.08 0.12 0.17 0.24 0.32 0.39 0.46 0.48 0.42 0.50 0.61 0.73 1.01 1.43 1.97 2.36 2.34 2.00 1.58 1.27
0.01 0.01 0.01 0.01 0.02 0.02 0.03 0.04 0.05 0.06 0.07 0.10 0.13 0.16 0.20 0.23 0.20 0.24 0.21 0.07 0.03 0.02 0.03 0.04 0.07 0.12 0.19 0.26 0.34 0.47 0.49 0.48 0.51 0.59 0.60 0.74 1.05 1.54 2.15 2.46 2.34 2.01 1.61
0.01 0.01 0.02 0.03 0.04 0.04 0.05 0.06 0.09 0.10 0.12 0.14 0.15 0.17 0.19 0.20 0.22 0.28 0.31 0.17 0.07 0.02 0.02 0.03 0.05 0.10 0.17 0.23 0.28 0.37 0.41 0.45 0.49 0.56 0.55 0.50 0.60 0.97 1.62 2.30 2.61 2.44 2.09
0.01 0.02 0.03 0.04 0.05 0.06 0.07 0.09 0.12 0.14 0.17 0.19 0.19 0.21 0.22 0.20 0.24 0.29 0.34 0.35 0.24 0.08 0.03 0.02 0.03 0.08 0.13 0.18 0.24 0.30 0.31 0.36 0.39 0.43 0.49 0.47 0.43 0.51 0.86 1.57 2.33 2.77 2.66
0.01 0.02 0.04 0.07 0.09 0.10 0.11 0.13 0.16 0.18 0.20 0.21 0.24 0.25 0.29 0.27 0.26 0.26 0.30 0.38 0.48 0.32 0.09 0.03 0.04 0.07 0.11 0.14 0.21 0.25 0.25 0.31 0.33 0.34 0.39 0.43 0.43 0.43 0.52 0.77 1.43 2.22 2.80
0.03 0.04 0.06 0.08 0.11 0.14 0.17 0.20 0.21 0.21 0.22 0.23 0.26 0.30 0.32 0.32 0.31 0.31 0.31 0.32 0.40 0.46 0.27 0.06 0.06 0.08 0.13 0.15 0.20 0.23 0.23 0.28 0.31 0.34 0.34 0.35 0.39 0.44 0.48 0.56 0.79 1.40 2.09
0.05 0.06 0.08 0.09 0.11 0.15 0.20 0.23 0.24 0.27 0.30 0.30 0.31 0.35 0.34 0.35 0.39 0.39 0.38 0.36 0.35 0.39 0.35 0.10 0.05 0.08 0.15 0.21 0.21 0.21 0.22 0.23 0.26 0.33 0.35 0.32 0.32 0.36 0.42 0.48 0.57 0.87 1.46
0.09 0.10 0.12 0.13 0.14 0.16 0.21 0.26 0.29 0.30 0.35 0.40 0.42 0.42 0.41 0.41 0.42 0.43 0.46 0.45 0.40 0.36 0.37 0.22 0.08 0.07 0.13 0.22 0.25 0.24 0.23 0.21 0.22 0.28 0.32 0.34 0.32 0.33 0.36 0.42 0.48 0.59 0.93
0.18 0.19 0.20 0.23 0.24 0.25 0.32 0.33 0.35 0.38 0.40 0.44 0.47 0.51 0.52 0.51 0.50 0.49 0.52 0.53 0.49 0.41 0.37 0.32 0.17 0.11 0.15 0.22 0.28 0.28 0.27 0.27 0.26 0.29 0.30 0.34 0.38 0.39 0.37 0.38 0.41 0.48 0.58
0.28 0.31 0.34 0.36 0.37 0.42 0.60 0.66 0.54 0.49 0.47 0.48 0.51 0.55 0.59 0.63 0.64 0.65 0.67 0.64 0.58 0.50 0.40 0.34 0.27 0.21 0.22 0.25 0.30 0.32 0.30 0.30 0.34 0.34 0.33 0.32 0.37 0.41 0.42 0.37 0.32 0.34 0.47
0.37 0.40 0.42 0.42 0.43 0.56 0.92 1.08 0.83 0.67 0.58 0.54 0.52 0.56 0.60 0.67 0.79 0.89 0.93 0.82 0.63 0.55 0.49 0.43 0.36 0.30 0.28 0.33 0.40 0.39 0.38 0.33 0.37 0.44 0.40 0.34 0.32 0.31 0.35 0.42 0.44 0.43 0.43
0.39 0.40 0.41 0.40 0.39 0.52 0.89 1.06 0.84 0.64 0.49 0.46 0.47 0.46 0.47 0.53 0.61 0.68 0.78 0.74 0.62 0.63 0.64 0.57 0.50 0.46 0.41 0.40 0.47 0.52 0.52 0.48 0.44 0.45 0.44 0.43 0.40 0.38 0.37 0.36 0.45 0.47 0.48
0.27 0.25 0.26 0.25 0.23 0.33 0.71 0.88 0.68 0.41 0.28 0.31 0.33 0.34 0.34 0.38 0.43 0.42 0.48 0.45 0.45 0.51 0.62 0.67 0.69 0.64 0.57 0.52 0.56 0.60 0.64 0.62 0.50 0.50 0.53 0.59 0.59 0.53 0.48 0.49 0.54 0.48 0.48
0.15 0.13 0.11 0.09 0.09 0.15 0.52 0.76 0.55 0.21 0.17 0.22 0.28 0.31 0.30 0.33 0.38 0.43 0.40 0.34 0.34 0.37 0.49 0.59 0.74 0.78 0.72 0.68 0.71 0.77 0.80 0.78 0.73 0.69 0.64 0.71 0.78 0.73 0.68 0.63 0.59 0.51 0.46
0.09 0.07 0.05 0.03 0.03 0.05 0.33 0.70 0.55 0.18 0.15 0.18 0.23 0.30 0.32 0.29 0.33 0.34 0.30 0.29 0.27 0.30 0.35 0.44 0.53 0.61 0.64 0.70 0.79 0.84 0.86 0.91 1.01 1.10 0.96 0.86 0.91 0.86 0.86 0.83 0.75 0.63 0.53
0.05 0.04 0.02 0.01 0.01 0.02 0.17 0.57 0.64 0.25 0.15 0.14 0.15 0.24 0.38 0.37 0.31 0.24 0.21 0.23 0.27 0.27 0.22 0.21 0.23 0.28 0.38 0.49 0.67 0.86 0.98 1.00 1.08 1.24 1.22 1.04 1.06 0.97 1.00 0.97 0.79 0.65 0.57